Meteo pe oră la Bolshie Kuzmenki

Astăzi, 9 Mai, Duminică

Timp Temperatura Precipitaţii Vânt Presiune Umiditate
00:00 +6°C° 0.1 mm 5 m/s 734 mmHg 94%
01:00 +5°C° 0.1 mm 5 m/s 735 mmHg 95%
02:00 +5°C° 0 mm 5 m/s 736 mmHg 95%
03:00 +3°C° 0.3 mm 6 m/s 736 mmHg 95%
04:00 +3°C° 0.3 mm 6 m/s 737 mmHg 96%
05:00 +2°C° 0.3 mm 7 m/s 737 mmHg 96%
06:00 +2°C° 0.1 mm 7 m/s 738 mmHg 96%
07:00 0°C° 0.1 mm 7 m/s 739 mmHg 96%
08:00 0°C° 0 mm 7 m/s 739 mmHg 96%
09:00 +2°C° 0.2 mm 7 m/s 740 mmHg 94%
10:00 +2°C° 0.2 mm 7 m/s 741 mmHg 93%
11:00 +3°C° 0.2 mm 7 m/s 741 mmHg 91%
12:00 +3°C° 0.2 mm 7 m/s 742 mmHg 86%
13:00 +4°C° 0.2 mm 8 m/s 743 mmHg 82%
14:00 +5°C° 0.2 mm 8 m/s 743 mmHg 77%
15:00 +5°C° 0 mm 7 m/s 744 mmHg 74%
16:00 +7°C° 0 mm 6 m/s 744 mmHg 71%
17:00 +7°C° 0 mm 5 m/s 744 mmHg 68%
18:00 +6°C° 0 mm 5 m/s 745 mmHg 72%
19:00 +5°C° 0 mm 4 m/s 745 mmHg 75%
20:00 +4°C° 0 mm 3 m/s 746 mmHg 79%
21:00 +4°C° 0 mm 4 m/s 747 mmHg 79%
22:00 +3°C° 0 mm 4 m/s 747 mmHg 80%
23:00 +3°C° 0 mm 4 m/s 747 mmHg 80%

Mâine, 10 Mai, Luni

Timp Temperatura Precipitaţii Vânt Presiune Umiditate
00:00 +1°C° 0 mm 4 m/s 748 mmHg 80%
01:00 +1°C° 0 mm 4 m/s 748 mmHg 80%
02:00 +1°C° 0 mm 4 m/s 749 mmHg 80%
03:00 +1°C° 0 mm 4 m/s 749 mmHg 80%
04:00 +1°C° 0 mm 4 m/s 750 mmHg 79%
05:00 +1°C° 0 mm 4 m/s 750 mmHg 79%
06:00 +4°C° 0 mm 4 m/s 751 mmHg 70%
07:00 +6°C° 0 mm 5 m/s 751 mmHg 62%
08:00 +7°C° 0 mm 6 m/s 751 mmHg 54%
09:00 +8°C° 0 mm 6 m/s 751 mmHg 51%
10:00 +9°C° 0 mm 6 m/s 751 mmHg 49%
11:00 +10°C° 0 mm 6 m/s 751 mmHg 46%
12:00 +10°C° 0 mm 7 m/s 751 mmHg 46%
13:00 +11°C° 0 mm 7 m/s 751 mmHg 46%
14:00 +11°C° 0 mm 7 m/s 751 mmHg 47%
15:00 +11°C° 0 mm 6 m/s 751 mmHg 51%
16:00 +11°C° 0 mm 6 m/s 751 mmHg 54%
17:00 +10°C° 0 mm 6 m/s 751 mmHg 58%
18:00 +9°C° 0 mm 5 m/s 751 mmHg 62%
19:00 +8°C° 0 mm 5 m/s 751 mmHg 66%
20:00 +6°C° 0 mm 4 m/s 751 mmHg 70%
21:00 +6°C° 0 mm 5 m/s 751 mmHg 70%
22:00 +6°C° 0 mm 5 m/s 751 mmHg 70%
23:00 +6°C° 0 mm 5 m/s 751 mmHg 70%

Poimâine, 11 Mai, Marţi

Timp Temperatura Precipitaţii Vânt Presiune Umiditate
00:00 +6°C° 0 mm 5 m/s 751 mmHg 73%
01:00 +5°C° 0 mm 5 m/s 751 mmHg 75%
02:00 +5°C° 0 mm 5 m/s 751 mmHg 77%
03:00 +5°C° 0 mm 5 m/s 751 mmHg 79%
04:00 +5°C° 0 mm 5 m/s 751 mmHg 80%
05:00 +5°C° 0 mm 6 m/s 751 mmHg 81%
06:00 +7°C° 0 mm 6 m/s 751 mmHg 79%
07:00 +9°C° 0 mm 7 m/s 751 mmHg 76%
08:00 +11°C° 0 mm 7 m/s 751 mmHg 74%
09:00 +12°C° 0 mm 7 m/s 750 mmHg 72%
10:00 +15°C° 0 mm 7 m/s 750 mmHg 70%
11:00 +16°C° 0 mm 7 m/s 750 mmHg 68%
12:00 +17°C° 0 mm 7 m/s 750 mmHg 69%
13:00 +17°C° 0 mm 7 m/s 750 mmHg 69%
14:00 +19°C° 0 mm 6 m/s 750 mmHg 70%
15:00 +17°C° 0.4 mm 6 m/s 750 mmHg 74%
16:00 +16°C° 0.4 mm 5 m/s 750 mmHg 79%
17:00 +17°C° 0.4 mm 4 m/s 750 mmHg 83%
18:00 +14°C° 0.3 mm 4 m/s 751 mmHg 86%
19:00 +13°C° 0.3 mm 3 m/s 751 mmHg 90%
20:00 +13°C° 0.3 mm 2 m/s 751 mmHg 93%
21:00 +12°C° 0 mm 2 m/s 751 mmHg 93%
22:00 +11°C° 0 mm 1 m/s 751 mmHg 92%
23:00 +11°C° 0 mm 1 m/s 751 mmHg 91%

12 Mai, Miercuri

Timp Temperatura Precipitaţii Vânt Presiune Umiditate
00:00 +11°C° 0.1 mm 1 m/s 751 mmHg 90%
01:00 +9°C° 0.1 mm 2 m/s 751 mmHg 90%
02:00 +9°C° 0.1 mm 2 m/s 751 mmHg 89%
03:00 +9°C° 0.9 mm 2 m/s 750 mmHg 91%
04:00 +8°C° 0.9 mm 2 m/s 750 mmHg 93%
05:00 +9°C° 0.9 mm 1 m/s 750 mmHg 95%
06:00 +8°C° 0.4 mm 2 m/s 750 mmHg 94%
07:00 +9°C° 0.4 mm 2 m/s 750 mmHg 93%
08:00 +9°C° 0.4 mm 2 m/s 750 mmHg 92%
09:00 +10°C° 0 mm 2 m/s 750 mmHg 86%
10:00 +12°C° 0 mm 3 m/s 750 mmHg 80%
11:00 +13°C° 0 mm 4 m/s 750 mmHg 74%
12:00 +13°C° 0 mm 4 m/s 749 mmHg 76%
13:00 +13°C° 0 mm 5 m/s 749 mmHg 77%
14:00 +12°C° 0 mm 5 m/s 749 mmHg 79%
15:00 +12°C° 0 mm 5 m/s 748 mmHg 81%
16:00 +12°C° 0 mm 4 m/s 748 mmHg 83%
17:00 +12°C° 0 mm 4 m/s 748 mmHg 85%
18:00 +12°C° 0 mm 4 m/s 747 mmHg 87%
19:00 +12°C° 0 mm 3 m/s 747 mmHg 89%
20:00 +11°C° 0 mm 3 m/s 747 mmHg 90%
21:00 +11°C° 0 mm 3 m/s 747 mmHg 92%
22:00 +10°C° 0 mm 3 m/s 747 mmHg 94%
23:00 +10°C° 0 mm 4 m/s 747 mmHg 96%

13 Mai, Joi

Timp Temperatura Precipitaţii Vânt Presiune Umiditate
00:00 +9°C° 0 mm 3 m/s 747 mmHg 96%
01:00 +9°C° 0 mm 3 m/s 747 mmHg 95%
02:00 +9°C° 0 mm 3 m/s 747 mmHg 95%
03:00 +9°C° 0 mm 3 m/s 747 mmHg 94%
04:00 +10°C° 0 mm 3 m/s 747 mmHg 93%
05:00 +10°C° 0 mm 3 m/s 747 mmHg 92%
06:00 +11°C° 0 mm 3 m/s 747 mmHg 86%
07:00 +13°C° 0 mm 4 m/s 747 mmHg 80%
08:00 +15°C° 0 mm 4 m/s 747 mmHg 74%
09:00 +17°C° 0 mm 4 m/s 747 mmHg 69%
10:00 +17°C° 0 mm 5 m/s 747 mmHg 65%
11:00 +19°C° 0 mm 5 m/s 747 mmHg 60%
12:00 +20°C° 0 mm 5 m/s 746 mmHg 58%
13:00 +20°C° 0 mm 5 m/s 746 mmHg 57%
14:00 +21°C° 0 mm 4 m/s 746 mmHg 55%
15:00 +20°C° 0 mm 4 m/s 746 mmHg 59%
16:00 +20°C° 0 mm 4 m/s 746 mmHg 62%
17:00 +20°C° 0 mm 3 m/s 746 mmHg 66%
18:00 +18°C° 0 mm 3 m/s 745 mmHg 71%
19:00 +17°C° 0 mm 3 m/s 745 mmHg 75%
20:00 +15°C° 0 mm 2 m/s 745 mmHg 80%
21:00 +15°C° 0 mm 2 m/s 745 mmHg 83%
22:00 +15°C° 0 mm 2 m/s 745 mmHg 87%
23:00 +13°C° 0 mm 3 m/s 745 mmHg 90%

14 Mai, Vineri

Timp Temperatura Precipitaţii Vânt Presiune Umiditate
00:00 +13°C° 0 mm 3 m/s 745 mmHg 91%
01:00 +13°C° 0 mm 3 m/s 744 mmHg 92%
02:00 +13°C° 0 mm 3 m/s 744 mmHg 93%
03:00 +13°C° 0 mm 3 m/s 744 mmHg 93%
04:00 +13°C° 0 mm 3 m/s 744 mmHg 92%
05:00 +13°C° 0 mm 3 m/s 744 mmHg 91%
06:00 +15°C° 0 mm 4 m/s 744 mmHg 86%
07:00 +16°C° 0 mm 5 m/s 744 mmHg 80%
08:00 +19°C° 0 mm 6 m/s 744 mmHg 74%
09:00 +20°C° 0 mm 6 m/s 743 mmHg 71%
10:00 +21°C° 0 mm 6 m/s 743 mmHg 67%
11:00 +22°C° 0 mm 7 m/s 743 mmHg 64%
12:00 +23°C° 0 mm 7 m/s 743 mmHg 64%
13:00 +23°C° 0 mm 7 m/s 743 mmHg 64%
14:00 +24°C° 0 mm 6 m/s 743 mmHg 64%
15:00 +23°C° 0.1 mm 6 m/s 742 mmHg 66%
16:00 +23°C° 0.1 mm 6 m/s 742 mmHg 68%
17:00 +22°C° 0.1 mm 5 m/s 742 mmHg 71%
18:00 +21°C° 0 mm 4 m/s 742 mmHg 76%
19:00 +20°C° 0 mm 4 m/s 742 mmHg 80%
20:00 +18°C° 0 mm 3 m/s 742 mmHg 85%
21:00 +18°C° 0.7 mm 3 m/s 742 mmHg 87%
22:00 +17°C° 0.7 mm 2 m/s 742 mmHg 88%
23:00 +17°C° 0.7 mm 2 m/s 742 mmHg 90%
Arată mai mult

Formular de consimțământ

Meteoprog și furnizorii noștri de servicii pot stoca și accesa date personale, precum cookies, identificatori de dispozitiv sau alte tehnologii similare pe dispozitivul dumneavoastră și procesa astfel de date pentru a personaliza conținutul și reclamele, dar și pentru a oferi caracteristici de social media și pentru a analiza traficul.

  • Stocarea și/sau accesarea informațiilor pe dispozitivul dumneavoastră

    Cookies, identificatori de dispozitiv sau alte informații pot fi stocate sau accesate pe dispozitiv în scopurile indicate mai sus.

  • Reclame și conținut personalizat, evaluarea reclamelor și a conținutului, informații despre audiențe și dezvoltarea produselor

    Reclamele și conținutul pot fi personalizate pe baza unui profil. Pot fi adăugate date suplimentare pentru a personaliza mai bine reclamele și conținutul. Performanța reclamelor și conținutului poate fi măsurată. Pot fi obținute informații despre utilizatorii care au văzut reclamele și conținutul. Aceste date pot fi utilizate pentru a dezvolta sau îmbunătăți experiența utilizatorilor, sistemele și software-ul.

Dând clic pe ‘Sunt de acord’, permiteți utilizarea cookie-urilor menționate, a identificatorilor de dispozitiv, balizelor web sau altor tehnologii similare. Setările pot fi modificate din browser-ul dispozitivului dumneavoastră.

În anumite scopuri, interesele legitime pot prima asupra consimțământului. Puteți citi mai multe informații în acest sens în Politica privind Confidențialitatea Datelor și Cookie.